{"data":{"norad_id":67914,"epoch":"2026-09-19T22:44:01.044384Z","epoch_age_seconds":110980,"freshness":"FRESH","line1":"1 67914U 26036L   26262.94723431  .00007857  00000+0  29470-3 0  9996","line2":"2 67914  42.9984 227.9892 0000614 283.4475  76.6308 15.27585297 33432","mean_motion":15.27585297,"eccentricity":6.14e-5,"inclination_deg":42.9984,"raan_deg":227.9892,"arg_perigee_deg":283.4475,"mean_anomaly_deg":76.6308,"bstar":0.0002947,"rev_number":3343,"period_min":94.266421837654,"perigee_km":482.61195910947,"apogee_km":483.45451081433,"semimajor_km":6861.1702349619,"source":"CELESTRAK","updated_at":"2026-09-20T09:00:43.702971Z"}}